Météo par heure à Jurki

Ce jour, 16 Juin, Mercredi

Heure Température Précipitation Vent Pression Humidité
00:00 +9°C° 0 mm 1 m/s 753 mmHg 90%
01:00 +9°C° 0 mm 1 m/s 753 mmHg 91%
02:00 +9°C° 0 mm 1 m/s 753 mmHg 91%
03:00 +9°C° 0 mm 1 m/s 753 mmHg 91%
04:00 +8°C° 0 mm 0 m/s 753 mmHg 91%
05:00 +10°C° 0 mm 0 m/s 753 mmHg 85%
06:00 +13°C° 0 mm 1 m/s 753 mmHg 79%
07:00 +15°C° 0 mm 1 m/s 753 mmHg 73%
08:00 +18°C° 0 mm 1 m/s 753 mmHg 68%
09:00 +19°C° 0 mm 1 m/s 753 mmHg 62%
10:00 +20°C° 0 mm 1 m/s 754 mmHg 56%
11:00 +21°C° 0 mm 1 m/s 753 mmHg 54%
12:00 +22°C° 0 mm 1 m/s 753 mmHg 53%
13:00 +21°C° 0 mm 2 m/s 753 mmHg 52%
14:00 +21°C° 0 mm 2 m/s 753 mmHg 54%
15:00 +21°C° 0 mm 2 m/s 753 mmHg 55%
16:00 +21°C° 0 mm 2 m/s 753 mmHg 56%
17:00 +20°C° 0 mm 2 m/s 753 mmHg 64%
18:00 +18°C° 0 mm 2 m/s 753 mmHg 71%
19:00 +17°C° 0 mm 2 m/s 753 mmHg 79%
20:00 +16°C° 0 mm 2 m/s 753 mmHg 82%
21:00 +14°C° 0 mm 2 m/s 754 mmHg 85%
22:00 +13°C° 0 mm 2 m/s 754 mmHg 88%
23:00 +13°C° 0 mm 2 m/s 754 mmHg 89%

Demain, 17 Juin, Jeudi

Heure Température Précipitation Vent Pression Humidité
00:00 +12°C° 0 mm 2 m/s 754 mmHg 90%
01:00 +11°C° 0 mm 3 m/s 754 mmHg 90%
02:00 +11°C° 0 mm 3 m/s 754 mmHg 90%
03:00 +11°C° 0 mm 3 m/s 754 mmHg 89%
04:00 +11°C° 0 mm 3 m/s 754 mmHg 89%
05:00 +13°C° 0 mm 3 m/s 754 mmHg 82%
06:00 +16°C° 0 mm 3 m/s 754 mmHg 75%
07:00 +18°C° 0 mm 3 m/s 755 mmHg 68%
08:00 +20°C° 0 mm 3 m/s 755 mmHg 62%
09:00 +21°C° 0 mm 3 m/s 755 mmHg 56%
10:00 +24°C° 0 mm 3 m/s 755 mmHg 51%
11:00 +25°C° 0 mm 4 m/s 755 mmHg 49%
12:00 +25°C° 0 mm 4 m/s 755 mmHg 47%
13:00 +26°C° 0 mm 4 m/s 754 mmHg 45%
14:00 +26°C° 0 mm 4 m/s 754 mmHg 48%
15:00 +26°C° 0 mm 3 m/s 754 mmHg 51%
16:00 +26°C° 0 mm 3 m/s 754 mmHg 53%
17:00 +25°C° 0 mm 3 m/s 754 mmHg 60%
18:00 +23°C° 0 mm 2 m/s 754 mmHg 66%
19:00 +21°C° 0 mm 2 m/s 754 mmHg 73%
20:00 +19°C° 0 mm 2 m/s 754 mmHg 75%
21:00 +18°C° 0 mm 3 m/s 754 mmHg 77%
22:00 +17°C° 0 mm 3 m/s 755 mmHg 79%
23:00 +16°C° 0 mm 3 m/s 754 mmHg 80%

Après-demain, 18 Juin, Vendredi

Heure Température Précipitation Vent Pression Humidité
00:00 +14°C° 0 mm 3 m/s 754 mmHg 82%
01:00 +14°C° 0 mm 3 m/s 754 mmHg 83%
02:00 +14°C° 0 mm 3 m/s 754 mmHg 85%
03:00 +13°C° 0 mm 3 m/s 754 mmHg 88%
04:00 +13°C° 0 mm 3 m/s 754 mmHg 90%
05:00 +16°C° 0 mm 3 m/s 754 mmHg 84%
06:00 +19°C° 0 mm 3 m/s 754 mmHg 77%
07:00 +21°C° 0 mm 4 m/s 754 mmHg 70%
08:00 +22°C° 0 mm 4 m/s 754 mmHg 66%
09:00 +25°C° 0 mm 4 m/s 754 mmHg 62%
10:00 +27°C° 0 mm 4 m/s 754 mmHg 58%
11:00 +27°C° 0 mm 4 m/s 753 mmHg 56%
12:00 +28°C° 0 mm 5 m/s 753 mmHg 54%
13:00 +29°C° 0 mm 5 m/s 753 mmHg 52%
14:00 +29°C° 0 mm 5 m/s 753 mmHg 54%
15:00 +29°C° 0 mm 4 m/s 752 mmHg 56%
16:00 +29°C° 0 mm 4 m/s 752 mmHg 58%
17:00 +28°C° 0 mm 4 m/s 752 mmHg 63%
18:00 +26°C° 0 mm 3 m/s 752 mmHg 69%
19:00 +25°C° 0 mm 3 m/s 752 mmHg 75%
20:00 +24°C° 0 mm 3 m/s 752 mmHg 78%
21:00 +22°C° 0 mm 3 m/s 752 mmHg 80%
22:00 +20°C° 0 mm 3 m/s 753 mmHg 83%
23:00 +20°C° 0 mm 3 m/s 753 mmHg 85%

19 Juin, Samedi

Heure Température Précipitation Vent Pression Humidité
00:00 +19°C° 0 mm 3 m/s 753 mmHg 87%
01:00 +19°C° 0 mm 3 m/s 752 mmHg 89%
02:00 +18°C° 0 mm 3 m/s 752 mmHg 90%
03:00 +18°C° 0 mm 3 m/s 752 mmHg 92%
04:00 +18°C° 0 mm 3 m/s 752 mmHg 93%
05:00 +19°C° 0 mm 4 m/s 752 mmHg 87%
06:00 +21°C° 0 mm 4 m/s 752 mmHg 80%
07:00 +23°C° 0 mm 5 m/s 752 mmHg 74%
08:00 +25°C° 0 mm 5 m/s 752 mmHg 69%
09:00 +27°C° 0 mm 5 m/s 752 mmHg 65%
10:00 +28°C° 0 mm 5 m/s 752 mmHg 60%
11:00 +29°C° 0 mm 5 m/s 752 mmHg 57%
12:00 +29°C° 0 mm 5 m/s 751 mmHg 55%
13:00 +30°C° 0 mm 5 m/s 751 mmHg 52%
14:00 +30°C° 0 mm 5 m/s 751 mmHg 54%
15:00 +30°C° 0 mm 4 m/s 751 mmHg 56%
16:00 +30°C° 0 mm 4 m/s 751 mmHg 57%
17:00 +29°C° 0 mm 3 m/s 750 mmHg 63%
18:00 +28°C° 0 mm 3 m/s 750 mmHg 69%
19:00 +26°C° 0 mm 3 m/s 750 mmHg 75%
20:00 +25°C° 0 mm 3 m/s 750 mmHg 77%
21:00 +24°C° 0 mm 3 m/s 750 mmHg 78%
22:00 +22°C° 0 mm 3 m/s 750 mmHg 80%
23:00 +22°C° 0 mm 3 m/s 750 mmHg 82%

20 Juin, Dimanche

Heure Température Précipitation Vent Pression Humidité
00:00 +21°C° 0 mm 3 m/s 750 mmHg 84%
01:00 +21°C° 0 mm 3 m/s 750 mmHg 85%
02:00 +20°C° 0 mm 3 m/s 750 mmHg 86%
03:00 +20°C° 0 mm 3 m/s 750 mmHg 87%
04:00 +20°C° 0 mm 3 m/s 750 mmHg 88%
05:00 +21°C° 0 mm 4 m/s 750 mmHg 84%
06:00 +22°C° 0 mm 4 m/s 750 mmHg 79%
07:00 +25°C° 0 mm 4 m/s 750 mmHg 75%
08:00 +26°C° 0.1 mm 4 m/s 750 mmHg 69%
09:00 +27°C° 0.1 mm 4 m/s 750 mmHg 64%
10:00 +28°C° 0.1 mm 4 m/s 750 mmHg 59%
11:00 +29°C° 0 mm 4 m/s 750 mmHg 56%
12:00 +29°C° 0 mm 4 m/s 750 mmHg 53%
13:00 +30°C° 0 mm 4 m/s 750 mmHg 50%
14:00 +30°C° 0 mm 3 m/s 750 mmHg 52%
15:00 +30°C° 0 mm 3 m/s 749 mmHg 54%
16:00 +29°C° 0 mm 3 m/s 749 mmHg 56%
17:00 +28°C° 0 mm 2 m/s 749 mmHg 62%
18:00 +27°C° 0 mm 2 m/s 749 mmHg 68%
19:00 +26°C° 0 mm 2 m/s 749 mmHg 73%
20:00 +24°C° 0 mm 2 m/s 749 mmHg 75%
21:00 +23°C° 0 mm 2 m/s 749 mmHg 77%
22:00 +21°C° 0 mm 3 m/s 749 mmHg 80%
23:00 +20°C° 0 mm 3 m/s 749 mmHg 81%

21 Juin, Lundi

Heure Température Précipitation Vent Pression Humidité
00:00 +20°C° 0 mm 3 m/s 749 mmHg 83%
01:00 +19°C° 0 mm 3 m/s 749 mmHg 85%
02:00 +19°C° 0 mm 3 m/s 749 mmHg 85%
03:00 +19°C° 0 mm 3 m/s 749 mmHg 86%
04:00 +19°C° 0 mm 3 m/s 749 mmHg 87%
05:00 +21°C° 0 mm 3 m/s 749 mmHg 82%
06:00 +22°C° 0 mm 4 m/s 749 mmHg 77%
07:00 +25°C° 0 mm 4 m/s 749 mmHg 72%
08:00 +26°C° 0 mm 5 m/s 749 mmHg 67%
09:00 +28°C° 0 mm 5 m/s 748 mmHg 62%
10:00 +29°C° 0 mm 6 m/s 748 mmHg 56%
11:00 +29°C° 0 mm 6 m/s 748 mmHg 54%
12:00 +30°C° 0 mm 5 m/s 748 mmHg 53%
13:00 +32°C° 0 mm 5 m/s 748 mmHg 51%
14:00 +32°C° 0 mm 5 m/s 748 mmHg 52%
15:00 +32°C° 0 mm 5 m/s 747 mmHg 53%
16:00 +30°C° 0 mm 4 m/s 747 mmHg 54%
17:00 +29°C° 0 mm 4 m/s 747 mmHg 60%
18:00 +28°C° 0 mm 4 m/s 747 mmHg 65%
19:00 +26°C° 0 mm 3 m/s 747 mmHg 71%
20:00 +25°C° 0 mm 3 m/s 747 mmHg 73%
21:00 +24°C° 0 mm 3 m/s 747 mmHg 75%
22:00 +22°C° 0 mm 3 m/s 747 mmHg 77%
23:00 +21°C° 0 mm 3 m/s 747 mmHg 80%
Voir plus

Nous avons besoin de votre consentement

Meteoprog et ses fournisseurs de services peuvent stocker et accéder à des données personnelles telles que des cookies, des identifiants d'appareils ou d'autres technologies similaires sur votre appareil et traiter ces données pour personnaliser le contenu et les publicités, ainsi que pour fournir des fonctionnalités de médias sociaux et analyser le trafic.

  • Stocker et/ou accéder à des informations sur votre appareil

    Des cookies, des identifiants d'appareils ou d'autres informations peuvent être stockés ou accessibles sur votre appareil aux fins indiquées ci-dessus.

  • Annonces et contenus personnalisés, mesure des annonces et des contenus, connaissance de l'audience et développement de produits

    Les annonces et le contenu peuvent être personnalisés en fonction d'un profil. D'autres données peuvent être ajoutées pour mieux personnaliser les annonces et le contenu. Les performances des publicités et du contenu peuvent être mesurées. Il est possible d'obtenir des informations sur le public qui a vu les publicités et le contenu. Ces données peuvent être utilisées pour développer ou améliorer l'expérience de l'utilisateur, les systèmes et les logiciels.

En cliquant sur "J'accepte", vous autorisez l'utilisation de cookies, des identifiants d'appareils, des balises web ou d'autres technologies similaires. Vos paramètres peuvent être modifiés dans le navigateur de votre appareil.

Dans certains cas, des intérêts légitimes peuvent être invoqués plutôt qu'un consentement. Vous pouvez en savoir plus à ce sujet dans notre Politique de confidentialité et de cookies.